Tracking 18816 objects as of 16-October-2017
HD Live streaming from Space Station
objects crossing your sky now

YAOGAN 8

Track YAOGAN 8 now!
10-day predictions
YAOGAN 8 is classified as:


NORAD ID: 36121
Int'l Code: 2009-072A
Perigee: 1,234.3 km
Apogee: 1,265.6 km
Inclination: 100.1 °
Period: 110.4 minutes
Semi major axis: 7620 km
RCS: 3.113 m2 (large)
Launch date: December 15, 2009
Source: People's Republic of China (PRC)
Launch site: Taiyaun Space Center, China (TSC)

YAOGAN 8 is a remote-sensing satellite.
aabbcc
Your satellite tracking list
Your tracking list is empty





NASA's NSSDC Master Catalog

Two Line Element Set (TLE):
1 36121U 09072A   17289.50754764 -.00000257  00000-0 -66925-3 0  9993
2 36121 100.0795 296.4674 0020520 252.9816 106.9043 13.04926901375842
Source of the keplerian elements: AFSPC